Location: Burla
(50.9568°N, 10.4983°E)
Time: 00:18:00
(UTC+00:00)

Cosmos 540 Rocket - Pass Details

Date: 18 January 2026
Orbit: 736 x 747 km, 74.1° (Epoch: 16 February)

Event Time Altitude Azimuth Distance (km) Brightness Sun altitude
Exits shadow 06:20:18 - 321° (NW) 2,541 5.7 -8.0°
Reaches altitude 10° 06:21:09 10° 316° (NW) 2,251 5.4 -7.9°
Maximum altitude 06:25:22 27° 260° (W) 1,406 4.4 -7.3°
Drops below altitude 10° 06:29:34 10° 204° (SSW) 2,241 5.9 -6.7°
Sets 06:32:12 0° 192° (SSW) 3,160 6.9 -6.3°
